Weather History for KAUW - November, 2012

Change the Weather History Date:

Sunday, November 18, 2012

  Actual Average Record
Temperature  
Mean Temperature 45 °F 31 °F  
Max Temperature 56 °F 39 °F 66 °F (1953)
Min Temperature 33 °F 24 °F 5 °F (1986)
Degree Days  
Heating Degree Days 20 34  
Month to date heating degree days 508 531  
Since 1 July heating degree days 1367 1415  
Cooling Degree Days 0 0  
Month to date cooling degree days 0 0  
Year to date cooling degree days 725 407  
Moisture  
Dew Point 31 °F    
Average Humidity 64    
Maximum Humidity 89    
Minimum Humidity 38    
Precipitation  
Precipitation 0.00 in 0.07 in 0.90 in (1957)
Month to date precipitation 1.16 1.26  
Year to date precipitation 27.74 30.31  
Snow  
Snow 0.00 in 0.20 in 5.50 in (1957)
Month to date snowfall 0.6 2.9  
Since 1 July snowfall 0.6 4.3  
Snow Depth 0.00 in    
Sea Level Pressure  
Sea Level Pressure 30.32 in    
Wind  
Wind Speed 8 mph (SE)    
Max Wind Speed 18 mph    
Max Gust Speed 24 mph    
Visibility 8 miles    
Events      
T = Trace of Precipitation, MM = Missing Value Source: NWS Daily Summary

Daily Weather History Graph

Daily Weather History Graph

Search for Another Location

Airport or City:

Trip Planner

Search our weather history database for the weather conditions in past years. The results will help you decide how hot, cold, wet, or windy it might be!

Date:

Astronomy

Nov. 18, 2012 Rise Set
Actual Time 7:00 AM CST 4:26 PM CST
Civil Twilight 6:28 AM CST 4:58 PM CST
Nautical Twilight 5:52 AM CST 5:34 PM CST
Astronomical Twilight 5:18 AM CST 6:09 PM CST
Moon 11:24 AM CST (11/18) 9:50 PM CST (11/18)
Length of Visible Light 10h 29m
Length of Day
9h 25m
Waxing Crescent, 30% of the Moon is Illuminated
Nov 18
Waxing Crescent
Nov 20
First Quarter
Nov 28
Full
Dec 6
Last Quarter
Dec 13
New

Hourly Weather History & Observations

Time (CST) Temp. Windchill Dew Point Humidity Pressure Visibility Wind Dir Wind Speed Gust Speed Precip Events Conditions
12:54 AM 37.9 °F 35.5 °F 30.0 °F 73% 30.39 in 7.0 mi ESE 3.5 mph - N/A   Clear
1:54 AM 37.0 °F 33.3 °F 30.0 °F 76% 30.39 in 7.0 mi ESE 4.6 mph - N/A   Clear
2:54 AM 36.0 °F 32.1 °F 30.0 °F 79% 30.38 in 6.0 mi SE 4.6 mph - N/A   Haze
3:54 AM 37.0 °F 34.5 °F 30.0 °F 76% 30.38 in 6.0 mi ESE 3.5 mph - N/A   Haze
4:54 AM 35.1 °F 29.3 °F 30.0 °F 82% 30.38 in 6.0 mi ESE 6.9 mph - N/A   Haze
5:54 AM 34.0 °F 29.8 °F 30.0 °F 85% 30.37 in 5.0 mi ESE 4.6 mph - N/A   Clear
6:54 AM 34.0 °F 28.0 °F 30.0 °F 85% 30.37 in 5.0 mi SE 6.9 mph - N/A   Clear
7:54 AM 35.1 °F 29.3 °F 30.9 °F 85% 30.36 in 4.0 mi ESE 6.9 mph - N/A   Clear
8:54 AM 37.9 °F 32.7 °F 32.0 °F 79% 30.35 in 4.0 mi ESE 6.9 mph - N/A   Haze
9:54 AM 45.0 °F 40.1 °F 33.1 °F 63% 30.33 in 7.0 mi SSE 9.2 mph - N/A   Clear
10:54 AM 48.9 °F - 32.0 °F 52% 30.32 in 9.0 mi South 6.9 mph - N/A   Clear
11:54 AM 54.0 °F - 30.9 °F 41% 30.30 in 10.0 mi SSE 11.5 mph - N/A   Clear
12:54 PM 55.0 °F - 30.0 °F 38% 30.28 in 10.0 mi South 12.7 mph - N/A   Clear
1:54 PM 55.0 °F - 30.0 °F 38% 30.27 in 10.0 mi SSE 15.0 mph - N/A   Scattered Clouds
2:54 PM 54.0 °F - 30.0 °F 40% 30.25 in 10.0 mi SSE 16.1 mph - N/A   Scattered Clouds
3:54 PM 53.1 °F - 30.0 °F 41% 30.25 in 10.0 mi SSE 11.5 mph - N/A   Mostly Cloudy
4:54 PM 51.1 °F - 30.0 °F 44% 30.27 in 10.0 mi SSE 10.4 mph - N/A   Mostly Cloudy
5:54 PM 48.9 °F - 30.9 °F 50% 30.28 in 10.0 mi SE 9.2 mph - N/A   Scattered Clouds
6:54 PM 46.9 °F - 30.9 °F 54% 30.27 in 10.0 mi SE 8.1 mph - N/A   Mostly Cloudy
7:54 PM 46.0 °F 41.9 °F 30.9 °F 56% 30.27 in 10.0 mi SSE 8.1 mph - N/A   Overcast
8:54 PM 46.0 °F 41.0 °F 30.0 °F 54% 30.28 in 10.0 mi SSE 10.4 mph - N/A   Scattered Clouds
9:54 PM 46.0 °F 41.4 °F 30.0 °F 54% 30.27 in 10.0 mi South 9.2 mph - N/A   Mostly Cloudy
11:54 PM 43.0 °F 38.8 °F 32.0 °F 65% 30.25 in 10.0 mi SSE 6.9 mph - N/A   Partly Cloudy